JO-97
1 43803U 18099AX  25002.92073374  .00023042  00000-0  12324-2 0  9994
2 43803  97.4922  63.8309 0007995 343.7266  16.3708 15.15040683332852
Suomi 100
1 43804U 18099AY  25002.32730596  .00032188  00000-0  17961-2 0  9998
2 43804  97.4989  62.8900 0013307 342.8166  17.2613 15.13407549332722
ISAT
1 43879U 18111D   25002.48074896  .00047721  00000-0  21531-2 0  9993
2 43879  97.6068 274.3637 0012691  39.8106 320.4057 15.20770127327574
UWE-4
1 43880U 18111E   25002.46554448  .00040360  00000-0  19449-2 0  9996
2 43880  97.5998 273.7189 0016196  47.2321 313.0272 15.18491967329576
Sparrow
1 43881U 18111F   25002.43551753  .00051617  00000-0  22749-2 0  9994
2 43881  97.6176 276.6752 0011001  73.1201 287.1240 15.21570291327665
Prox-1
1 44339U 19036A   25002.43855991  .00031448  00000-0  45758-2 0  9996
2 44339  23.9994  16.4582 0008025  80.3405 279.7998 14.74482401294609
SONATE
1 44400U 19038Q   25002.30194459  .00106139  00000-0  16871-2 0  9992
2 44400  97.7118  13.7500 0013829 106.0697 254.2079 15.52840086304763
Taurus 1
1 44530U 19059C   25002.43516805  .00028889  00000-0  57796-2 0  9992
2 44530  98.5900 134.9861 0010386 163.5804 196.5734 14.61719425280809
Duchifat 3
1 44854U 19089C   25002.12161627  .00156238  00000-0  50902-2 0  9990
2 44854  36.9498 270.1262 0012304 311.3349  48.6343 15.30280817278538
TO-108
1 44881U 19093C   25002.92014533  .00003553  00000-0  42265-3 0  9991
2 44881  97.8105  81.8101 0014732  33.8225 326.3927 14.84938448272675
FloripaSat 1
1 44885U 19093G   25002.46752261  .00021043  00000-0  19116-2 0  9993
2 44885  97.8288  90.0540 0011663  20.1458 340.0220 14.95226750273091
RS-44
1 44909U 19096E   25002.39453283  .00000020  00000-0  41175-4 0  9991
2 44909  82.5229 332.3981 0216625 305.6651  52.4452 12.79737522234458
UPMSat 2
1 46276U 20061E   25002.42421874  .00071521  00000-0  13286-2 0  9993
2 46276  97.2696  73.8510 0001947 111.1634 248.9825 15.48669443240844
AmicalSat
1 46287U 20061R   25002.47765945  .01122916  63252-3  23731-2 0  9993
2 46287  97.3041  80.5797 0003873 280.6354  79.4487 15.98943019240529
SALSAT
1 46495U 20068K   25002.25436097  .00026189  00000-0  12588-2 0  9991
2 46495  97.8432 333.6218 0012463   0.1231   0.0003 15.18730589234461
CubeSX-Sirius-HSE
1 47951U 21022V   25002.48555509  .00106344  00000-0  21676-2 0  9995
2 47951  97.4388 268.4725 0011033 129.5949 230.6276 15.45774402209127
CubeSX-HSE
1 47952U 21022W   25002.47576109  .00101263  00000-0  20455-2 0  9993
2 47952  97.4387 268.6194 0011007 128.9810 231.2421 15.46059012209134
KSU-Cubesat
1 47954U 21022Y   25002.45057838  .00191118  00000-0  25306-2 0  9994
2 47954  97.4383 271.6544 0010336 115.0263 245.2067 15.57589339209041
GRBAlpha
1 47959U 21022AD  25002.43462188  .00106910  00000-0  21622-2 0  9998
2 47959  97.4386 268.7441 0010844 128.9894 231.2322 15.46003084207952
Orbicraft-Zorkiy
1 47960U 21022AE  25002.48182236  .00154061  00000-0  24188-2 0  9998
2 47960  97.4392 271.2831 0010364 119.6538 240.5748 15.53058942208780
TUBIN
1 48900U 21059X   25002.44989952  .00061368  00000-0  13328-2 0  9990
2 48900  97.6626 161.0503 0005497  95.8458 264.3416 15.44137534195513
LEDSAT
1 49069U 21073D   25002.88578704  .00054110  00000-0  13394-2 0  9990
2 49069  97.4123  80.3190 0013354 294.1361  65.8488 15.40162307187014
CUTE
1 49263U 21088D   25001.65257151  .00090962  00000-0  25147-2 0  9990
2 49263  97.4720  74.1343 0011227  99.9647 260.2864 15.36618500179925
TeikyoSat 4
1 49396U 21102B   25002.39781476  .00009440  00000-0  64331-3 0  9998
2 49396  97.4334  46.4494 0011944 320.9313  39.1051 15.06407334172725
Z-Sat
1 49399U 21102E   25002.45705558  .00015785  00000-0  91693-3 0  9995
2 49399  97.4046  48.7389 0017433 294.0389  65.9017 15.12062017173068
KOSEN 1
1 49402U 21102H   25002.40064533  .00023737  00000-0  12088-2 0  9992
2 49402  97.3960  51.0366 0015397 271.7128  88.2342 15.16690258173280
HO-113
1 50466U 21131B   25002.89246570  .00002369  00000-0  75948-3 0  9995
2 50466  98.5188  93.0382 0003283 241.2293 118.8566 14.40415507158747
IRIS-A
1 51044U 22002BN  25002.46666360  .00118731  00000-0  20067-2 0  9994
2 51044  97.3550  76.3115 0004708  43.6164 316.5460 15.51167640165082
Foresail-1
1 52766U 22057AL  25002.36299002  .00107763  00000-0  18227-2 0  9998
2 52766  97.5973 141.2447 0006017 138.4291 221.7418 15.51179378145106
SNUGLITE 2
1 52899U 22065F   25002.48399730  .00006454  00000-0  12851-2 0  9998
2 52899  98.1438 146.3230 0006645 246.4208 113.6296 14.62361508133375
IO-117
1 53106U 22080B   24357.45145358 -.00000003  00000-0  00000-0 0  9997
2 53106  70.1377 127.1156 0008284  64.6124 295.5392  6.42557665 57362
FO-118
1 54684U 22167C   25002.43946884  .00218716  00000-0  23347-2 0  9996
2 54684  97.6129 162.0082 0003599 170.4118 189.7209 15.63212102115017
SO-120
1 56992U 23084BU  25002.15033768  .00509767  00000-0  43788-2 0  9996
2 56992  97.5338 134.0474 0005786 352.5797   7.5377 15.67792196 86843
MRC-100
1 56993U 23084BV  25001.60501695  .02489175  74267-2  30433-2 0  9998
2 56993  97.5220 136.2015 0010087 311.8562  48.1859 16.09832990 86948
UmKA 1 (RS40S)
1 57172U 23091G   25002.90262452  .00015664  00000-0  90649-3 0  9999
2 57172  97.5837  59.2270 0015913 153.7838 206.4202 15.12224088 83620
CubeBel-2 (EU11S)
1 57175U 23091K   25002.93095172  .00018996  00000-0  10284-2 0  9995
2 57175  97.5839  59.6382 0013826 162.7563 197.4141 15.14596253 83651
VERONIKA
1 58261U 23174F   25002.46724132  .00094459  00000-0  24150-2 0  9992
2 58261  97.4372  83.3523 0007956 255.8347 104.2015 15.39053553 64159
KAFASAT
1 58317U 23174BP  25002.84633393  .00147167  00000-0  24469-2 0  9992
2 58317  97.4284  86.0399 0006508 229.2737 130.7951 15.51513758 64384
ENSO
1 58470U 23185J   25002.88015289  .00049572  00000-0  13271-2 0  9996
2 58470  97.3989  75.0152 0008608 292.3169  67.7162 15.37832365 60665
EIRSAT-1
1 58472U 23185L   25002.86436989  .00064895  00000-0  15776-2 0  9997
2 58472  97.3984  75.4556 0008052 291.6549  68.3839 15.40720633 60690
SONATE-2
1 59112U 24043Q   25001.96480485  .00082921  00000-0  30257-2 0  9994
2 59112  97.4963 131.1179 0012097 320.7450  39.2911 15.27743400 46054
MO-122
1 60209U 24125G   25002.33493637  .00048440  00000-0  17584-2 0  9995
2 60209  97.2955 216.4122 0022636 347.2245  12.8418 15.27908881 27721
GRBBeta
1 60237U 24128C   25002.43932802  .00017908  00000-0  14203-2 0  9992
2 60237  61.9932 269.9628 0033832  19.7243 340.5146 15.00203621 26457
Curium One
1 60242U 24128H   25001.12471258  .00028332  00000-0  21877-2 0  9994
2 60242  61.9841 274.4801 0033750  12.5486 347.6436 15.01006927 26265
ROBUSTA-3A
1 60243U 24128J   25002.15241655  .00062481  00000-0  48116-2 0  9993
2 60243  61.9904 271.2754 0031757  10.6092 349.5661 15.00830300 26412
CatSat
1 60246U 24125J   25001.11207930  .00031949  00000-0  12262-2 0  9994
2 60246  97.2754 215.8479 0045805 302.1049  57.5747 15.25409707 25632
CySat-1
1 61501U 98067WZ  25002.48983782  .01455412  12419-2  24129-2 0  9992
2 61501  51.6217  36.5394 0012542  34.1127 326.0687 16.02504860 13546
AO-123
1 61781U 24199AY  25002.48661741  .00026195  00000-0  10601-2 0  9997
2 61781  97.3773 232.3636 0018730  40.8081 319.4556 15.24513370 52760
